Tracking 30101 objects as of 13-Dec-2024
HD Live streaming from Space Station
objects crossing your sky now

USA 167

Track USA 167 now!
USA 167 is classified as:


NORAD ID: 27691
Int'l Code: 2003-008A
Perigee: 35,778.4 km
Apogee: 35,810.1 km
Inclination: 9.9 °
Period: 1,436.1 minutes
Semi major axis: 42165 km
RCS: Unknown
Launch date: March 11, 2003
Source: United States (US)
Launch site: AIR FORCE EASTERN TEST RANGE (AFETR)

Super High Frequency (SHF) for U.S. government and military; sophisticated survivability enhancement; worldwide, longhaul coverage; X-band.
Your satellite tracking list
Your tracking list is empty




NASA's NSSDC Master Catalog

Two Line Element Set (TLE):
1 27691U 03008A   24347.28410911  .00000013  00000-0  00000-0 0  9996
2 27691   9.8558  48.1033 0003753 242.9971 130.8269  1.00269913  1240
Source of the keplerian elements: McCants